contact:dominique.lefevre@mio.osupytheas.fr, maurice.libes@osupytheas.fr, didier.mallarino@osupytheas.fr
Project:EMSO http://www.emso-fr.org/EMSO-France
Depth: 2436.0 m
Title:EMSO Ligure Ouest : Data MII capteur CSTAR
DateTime,Latitude,Longitude,Instrument_Serial,Reference_Counts,Signal_Counts,Corrected_Signal_raw_counts,Calculated_Beam_c_inverse_meters,Internal_thermistor_counts
DateTime,Latitude,Longitude,Instrument_Serial,Reference_Counts,Signal_Counts,Corrected_Signal_raw_counts,Calculated_Beam_c_inverse_meters,Internal_thermistor_counts
2022-11-10T00:02:05,42.805,6.029,CST-1368DR,4506,5044,11907,01.085,551
2022-11-10T00:05:07,42.805,6.029,CST-1368DR,4506,5052,11927,01.078,551
2022-11-10T00:08:08,42.805,6.029,CST-1368DR,4506,5043,11905,01.085,551
2022-11-10T00:11:10,42.805,6.029,CST-1368DR,4506,5043,11905,01.085,551
2022-11-10T00:14:11,42.805,6.029,CST-1368DR,4506,5054,11931,01.077,551
2022-11-10T00:17:13,42.805,6.029,CST-1368DR,4506,5045,11911,01.083,551
2022-11-10T00:20:15,42.805,6.029,CST-1368DR,4506,5045,11910,01.084,551
2022-11-10T00:23:16,42.805,6.029,CST-1368DR,4506,5046,11912,01.083,551
2022-11-10T00:26:18,42.805,6.029,CST-1368DR,4506,5048,11916,01.082,551
2022-11-10T00:29:19,42.805,6.029,CST-1368DR,4506,5042,11902,01.086,551
2022-11-10T00:32:21,42.805,6.029,CST-1368DR,4506,5048,11916,01.082,551
2022-11-10T00:35:23,42.805,6.029,CST-1368DR,4506,5046,11911,01.083,551
2022-11-10T00:38:24,42.805,6.029,CST-1368DR,4506,5046,11912,01.083,551
2022-11-10T00:41:26,42.805,6.029,CST-1368DR,4506,5049,11918,01.081,551
2022-11-10T00:44:27,42.805,6.029,CST-1368DR,4506,5044,11907,01.085,551
2022-11-10T00:47:29,42.805,6.029,CST-1368DR,4506,5045,11909,01.084,551
2022-11-10T00:50:30,42.805,6.029,CST-1368DR,4506,5043,11904,01.086,551
2022-11-10T00:53:32,42.805,6.029,CST-1368DR,4506,5044,11908,01.084,551
2022-11-10T00:56:34,42.805,6.029,CST-1368DR,4506,5041,11900,01.087,551
2022-11-10T00:59:35,42.805,6.029,CST-1368DR,4506,5042,11903,01.086,551
2022-11-10T01:02:37,42.805,6.029,CST-1368DR,4506,5044,11907,01.085,551
2022-11-10T01:05:38,42.805,6.029,CST-1368DR,4506,5045,11910,01.084,551
2022-11-10T01:08:40,42.805,6.029,CST-1368DR,4506,5036,11888,01.091,551
2022-11-10T01:11:42,42.805,6.029,CST-1368DR,4506,5047,11914,01.082,551
2022-11-10T01:14:43,42.805,6.029,CST-1368DR,4506,5045,11911,01.083,551
2022-11-10T01:17:45,42.805,6.029,CST-1368DR,4506,5041,11901,01.087,551
2022-11-10T01:20:46,42.805,6.029,CST-1368DR,4506,5043,11904,01.086,551
2022-11-10T01:23:48,42.805,6.029,CST-1368DR,4506,5042,11902,01.086,551
2022-11-10T01:26:49,42.805,6.029,CST-1368DR,4506,5046,11912,01.083,551
2022-11-10T01:29:51,42.805,6.029,CST-1368DR,4506,5042,11904,01.086,551
2022-11-10T01:32:53,42.805,6.029,CST-1368DR,4506,5042,11904,01.086,551
2022-11-10T01:35:54,42.805,6.029,CST-1368DR,4506,5044,11907,01.085,551
2022-11-10T01:38:56,42.805,6.029,CST-1368DR,4506,5049,11918,01.081,551
2022-11-10T01:41:57,42.805,6.029,CST-1368DR,4506,5042,11904,01.086,551
2022-11-10T01:44:59,42.805,6.029,CST-1368DR,4506,5037,11892,01.090,551
2022-11-10T01:48:00,42.805,6.029,CST-1368DR,4506,5042,11904,01.086,551
2022-11-10T01:51:02,42.805,6.029,CST-1368DR,4506,5041,11901,01.087,551
2022-11-10T01:54:04,42.805,6.029,CST-1368DR,4506,5046,11911,01.083,551
2022-11-10T01:57:05,42.805,6.029,CST-1368DR,4506,5042,11902,01.086,551
2022-11-10T02:00:07,42.805,6.029,CST-1368DR,4506,5043,11904,01.086,551
2022-11-10T02:03:08,42.805,6.029,CST-1368DR,4506,5047,11915,01.082,551
2022-11-10T02:06:10,42.805,6.029,CST-1368DR,4506,5045,11911,01.083,551
2022-11-10T02:09:12,42.805,6.029,CST-1368DR,4506,5043,11904,01.086,551
2022-11-10T02:12:13,42.805,6.029,CST-1368DR,4506,5041,11899,01.087,551
2022-11-10T02:15:15,42.805,6.029,CST-1368DR,4506,5048,11916,01.082,551
2022-11-10T02:18:16,42.805,6.029,CST-1368DR,4506,5047,11914,01.082,551
2022-11-10T02:21:18,42.805,6.029,CST-1368DR,4506,5044,11907,01.085,551
2022-11-10T02:24:19,42.805,6.029,CST-1368DR,4506,5050,11922,01.080,551
2022-11-10T02:27:21,42.805,6.029,CST-1368DR,4506,5048,11916,01.082,551
2022-11-10T02:30:23,42.805,6.029,CST-1368DR,4506,5039,11897,01.088,551
2022-11-10T02:33:24,42.805,6.029,CST-1368DR,4506,5051,11925,01.079,551
2022-11-10T02:36:26,42.805,6.029,CST-1368DR,4506,5040,11897,01.088,551
2022-11-10T02:39:27,42.805,6.029,CST-1368DR,4506,5044,11908,01.084,551
2022-11-10T02:42:29,42.805,6.029,CST-1368DR,4506,5042,11904,01.086,551
2022-11-10T02:45:30,42.805,6.029,CST-1368DR,4506,5037,11891,01.090,551
2022-11-10T02:48:32,42.805,6.029,CST-1368DR,4506,5040,11898,01.088,551
2022-11-10T02:51:34,42.805,6.029,CST-1368DR,4506,5040,11897,01.088,551
2022-11-10T02:54:35,42.805,6.029,CST-1368DR,4506,5040,11897,01.088,551
2022-11-10T02:57:37,42.805,6.029,CST-1368DR,4506,5038,11894,01.089,551
2022-11-10T03:00:38,42.805,6.029,CST-1368DR,4506,5038,11892,01.090,551
2022-11-10T03:03:40,42.805,6.029,CST-1368DR,4506,5035,11885,01.092,551
2022-11-10T03:06:42,42.805,6.029,CST-1368DR,4506,5035,11887,01.091,551
2022-11-10T03:09:43,42.805,6.029,CST-1368DR,4506,5037,11891,01.090,551
2022-11-10T03:12:45,42.805,6.029,CST-1368DR,4506,5043,11904,01.086,551
2022-11-10T03:15:46,42.805,6.029,CST-1368DR,4506,5040,11897,01.088,551
2022-11-10T03:18:48,42.805,6.029,CST-1368DR,4506,5042,11904,01.086,551
2022-11-10T03:21:49,42.805,6.029,CST-1368DR,4506,5042,11904,01.086,551
2022-11-10T03:24:51,42.805,6.029,CST-1368DR,4506,5043,11904,01.086,551
2022-11-10T03:27:53,42.805,6.029,CST-1368DR,4506,5037,11891,01.090,551
2022-11-10T03:30:54,42.805,6.029,CST-1368DR,4505,5034,11886,01.092,551
2022-11-10T03:33:56,42.805,6.029,CST-1368DR,4506,5041,11901,01.087,551
2022-11-10T03:36:57,42.805,6.029,CST-1368DR,4506,5042,11902,01.086,551
2022-11-10T03:39:59,42.805,6.029,CST-1368DR,4506,5039,11897,01.088,551
2022-11-10T03:43:00,42.805,6.029,CST-1368DR,4506,5036,11889,01.091,551
2022-11-10T03:46:02,42.805,6.029,CST-1368DR,4506,5035,11887,01.091,551
2022-11-10T03:49:04,42.805,6.029,CST-1368DR,4506,5042,11904,01.086,551
2022-11-10T03:52:05,42.805,6.029,CST-1368DR,4505,5038,11895,01.089,551
2022-11-10T03:55:07,42.805,6.029,CST-1368DR,4506,5040,11898,01.088,551
2022-11-10T03:58:08,42.805,6.029,CST-1368DR,4506,5039,11895,01.089,551
2022-11-10T04:01:10,42.805,6.029,CST-1368DR,4505,5035,11888,01.091,551
2022-11-10T04:04:12,42.805,6.029,CST-1368DR,4506,5039,11895,01.089,551
2022-11-10T04:07:13,42.805,6.029,CST-1368DR,4506,5037,11890,01.090,551
2022-11-10T04:10:15,42.805,6.029,CST-1368DR,4506,5041,11899,01.087,551
2022-11-10T04:13:16,42.805,6.029,CST-1368DR,4505,5040,11900,01.087,551
2022-11-10T04:16:18,42.805,6.029,CST-1368DR,4505,5037,11893,01.089,551
2022-11-10T04:19:19,42.805,6.029,CST-1368DR,4506,5041,11899,01.087,551
2022-11-10T04:22:21,42.805,6.029,CST-1368DR,4505,5038,11896,01.088,551
2022-11-10T04:25:23,42.805,6.029,CST-1368DR,4506,5037,11892,01.090,551
2022-11-10T04:28:24,42.805,6.029,CST-1368DR,4506,5039,11895,01.089,551
2022-11-10T04:31:26,42.805,6.029,CST-1368DR,4505,5039,11898,01.088,551
2022-11-10T04:34:27,42.805,6.029,CST-1368DR,4505,5042,11906,01.085,551
2022-11-10T04:37:29,42.805,6.029,CST-1368DR,4506,5043,11904,01.086,551
2022-11-10T04:40:30,42.805,6.029,CST-1368DR,4505,5041,11904,01.086,551
2022-11-10T04:43:32,42.805,6.029,CST-1368DR,4505,5039,11898,01.088,551
2022-11-10T04:46:34,42.805,6.029,CST-1368DR,4505,5041,11903,01.086,551
2022-11-10T04:49:35,42.805,6.029,CST-1368DR,4506,5046,11912,01.083,551
2022-11-10T04:52:37,42.805,6.029,CST-1368DR,4505,5046,11914,01.082,551
2022-11-10T04:55:38,42.805,6.029,CST-1368DR,4505,5039,11898,01.088,551
2022-11-10T04:58:40,42.805,6.029,CST-1368DR,4505,5040,11900,01.087,551
2022-11-10T05:01:42,42.805,6.029,CST-1368DR,4505,5042,11905,01.085,551
2022-11-10T05:04:43,42.805,6.029,CST-1368DR,4505,5041,11902,01.086,551
2022-11-10T05:07:45,42.805,6.029,CST-1368DR,4505,5040,11900,01.087,551
2022-11-10T05:10:46,42.805,6.029,CST-1368DR,4505,5044,11911,01.083,551
2022-11-10T05:13:48,42.805,6.029,CST-1368DR,4505,5051,11926,01.078,551
2022-11-10T05:16:49,42.805,6.029,CST-1368DR,4505,5040,11901,01.087,551
2022-11-10T05:19:51,42.805,6.029,CST-1368DR,4505,5041,11903,01.086,551
2022-11-10T05:22:53,42.805,6.029,CST-1368DR,4505,5037,11893,01.089,551
2022-11-10T05:25:54,42.805,6.029,CST-1368DR,4505,5043,11907,01.085,551
2022-11-10T05:28:56,42.805,6.029,CST-1368DR,4505,5043,11907,01.085,551
2022-11-10T05:31:57,42.805,6.029,CST-1368DR,4505,5039,11898,01.088,551
2022-11-10T05:34:59,42.805,6.029,CST-1368DR,4505,5042,11905,01.085,551
2022-11-10T05:38:00,42.805,6.029,CST-1368DR,4505,5041,11903,01.086,551
2022-11-10T05:41:02,42.805,6.029,CST-1368DR,4505,5045,11913,01.083,551
2022-11-10T05:44:04,42.805,6.029,CST-1368DR,4505,5041,11904,01.086,551
2022-11-10T05:47:05,42.805,6.029,CST-1368DR,4505,5042,11906,01.085,551
2022-11-10T05:50:07,42.805,6.029,CST-1368DR,4506,5044,11908,01.084,551
2022-11-10T05:53:08,42.805,6.029,CST-1368DR,4505,5038,11896,01.088,551
2022-11-10T05:56:10,42.805,6.029,CST-1368DR,4505,5044,11910,01.084,551
2022-11-10T05:59:12,42.805,6.029,CST-1368DR,4505,5037,11894,01.089,551
2022-11-10T06:02:13,42.805,6.029,CST-1368DR,4506,5039,11895,01.089,551
2022-11-10T06:05:15,42.805,6.029,CST-1368DR,4505,5041,11904,01.086,551
2022-11-10T06:08:16,42.805,6.029,CST-1368DR,4506,5039,11896,01.088,551
2022-11-10T06:11:18,42.805,6.029,CST-1368DR,4505,5038,11896,01.088,551
2022-11-10T06:14:19,42.805,6.029,CST-1368DR,4505,5038,11895,01.089,551
2022-11-10T06:17:21,42.805,6.029,CST-1368DR,4505,5038,11896,01.088,551
2022-11-10T06:20:23,42.805,6.029,CST-1368DR,4505,5037,11893,01.089,551
2022-11-10T06:23:24,42.805,6.029,CST-1368DR,4505,5034,11886,01.092,551
2022-11-10T06:26:26,42.805,6.029,CST-1368DR,4505,5035,11890,01.090,551
2022-11-10T06:29:27,42.805,6.029,CST-1368DR,4505,5036,11892,01.090,551
2022-11-10T06:32:29,42.805,6.029,CST-1368DR,4505,5036,11892,01.090,551
2022-11-10T06:35:31,42.805,6.029,CST-1368DR,4505,5034,11886,01.092,551
2022-11-10T06:38:32,42.805,6.029,CST-1368DR,4505,5027,11871,01.097,551
2022-11-10T06:41:34,42.805,6.029,CST-1368DR,4505,5033,11884,01.092,551
2022-11-10T06:44:35,42.805,6.029,CST-1368DR,4505,5034,11887,01.091,551
2022-11-10T06:47:37,42.805,6.029,CST-1368DR,4505,5032,11883,01.093,551
2022-11-10T06:50:38,42.805,6.029,CST-1368DR,4505,5032,11882,01.093,551
2022-11-10T06:53:40,42.805,6.029,CST-1368DR,4505,5034,11887,01.091,551
2022-11-10T06:56:42,42.805,6.029,CST-1368DR,4505,5034,11885,01.092,551
2022-11-10T06:59:43,42.805,6.029,CST-1368DR,4505,5035,11890,01.090,551
2022-11-10T07:02:45,42.805,6.029,CST-1368DR,4505,5035,11890,01.090,551
2022-11-10T07:05:46,42.805,6.029,CST-1368DR,4505,5035,11888,01.091,551
2022-11-10T07:08:48,42.805,6.029,CST-1368DR,4505,5038,11896,01.088,551
2022-11-10T07:11:49,42.805,6.029,CST-1368DR,4505,5037,11893,01.089,551
2022-11-10T07:14:51,42.805,6.029,CST-1368DR,4505,5036,11891,01.090,551
2022-11-10T07:17:53,42.805,6.029,CST-1368DR,4505,5037,11894,01.089,551
2022-11-10T07:20:54,42.805,6.029,CST-1368DR,4505,5037,11893,01.089,551
2022-11-10T07:23:56,42.805,6.029,CST-1368DR,4505,5037,11894,01.089,551
2022-11-10T07:26:57,42.805,6.029,CST-1368DR,4505,5038,11896,01.088,551
2022-11-10T07:29:59,42.805,6.029,CST-1368DR,4505,5039,11898,01.088,551
2022-11-10T07:33:01,42.805,6.029,CST-1368DR,4505,5040,11900,01.087,551
2022-11-10T07:36:02,42.805,6.029,CST-1368DR,4505,5040,11900,01.087,551
2022-11-10T07:39:04,42.805,6.029,CST-1368DR,4505,5038,11896,01.088,551
2022-11-10T07:42:05,42.805,6.029,CST-1368DR,4505,5037,11894,01.089,551
2022-11-10T07:45:07,42.805,6.029,CST-1368DR,4505,5036,11892,01.090,551
2022-11-10T07:48:08,42.805,6.029,CST-1368DR,4505,5037,11894,01.089,551
2022-11-10T07:51:10,42.805,6.029,CST-1368DR,4505,5037,11893,01.089,551
2022-11-10T07:54:12,42.805,6.029,CST-1368DR,4505,5052,11930,01.077,551
2022-11-10T07:57:13,42.805,6.029,CST-1368DR,4505,5041,11902,01.086,551
2022-11-10T08:00:15,42.805,6.029,CST-1368DR,4505,5040,11900,01.087,551
2022-11-10T08:03:16,42.805,6.029,CST-1368DR,4505,5034,11886,01.092,551
2022-11-10T08:06:18,42.805,6.029,CST-1368DR,4505,5034,11887,01.091,551
2022-11-10T08:09:19,42.805,6.029,CST-1368DR,4505,5035,11890,01.090,551
2022-11-10T08:12:21,42.805,6.029,CST-1368DR,4505,5035,11889,01.091,551
2022-11-10T08:15:23,42.805,6.029,CST-1368DR,4505,5037,11894,01.089,551
2022-11-10T08:18:24,42.805,6.029,CST-1368DR,4505,5039,11897,01.088,551
2022-11-10T08:21:26,42.805,6.029,CST-1368DR,4505,5039,11899,01.087,551
2022-11-10T08:24:27,42.805,6.029,CST-1368DR,4505,5040,11900,01.087,551
2022-11-10T08:27:29,42.805,6.029,CST-1368DR,4505,5038,11896,01.088,551
2022-11-10T08:30:31,42.805,6.029,CST-1368DR,4505,5039,11898,01.088,551
2022-11-10T08:33:32,42.805,6.029,CST-1368DR,4505,5041,11902,01.086,551
2022-11-10T08:36:34,42.805,6.029,CST-1368DR,4505,5039,11899,01.087,551
2022-11-10T08:39:35,42.805,6.029,CST-1368DR,4505,5041,11902,01.086,551
2022-11-10T08:42:37,42.805,6.029,CST-1368DR,4505,5037,11894,01.089,551
2022-11-10T08:45:38,42.805,6.029,CST-1368DR,4505,5040,11901,01.087,551
2022-11-10T08:48:40,42.805,6.029,CST-1368DR,4505,5039,11898,01.088,551
2022-11-10T08:51:42,42.805,6.029,CST-1368DR,4505,5043,11909,01.084,551
2022-11-10T08:54:43,42.805,6.029,CST-1368DR,4505,5042,11906,01.085,551
2022-11-10T08:57:45,42.805,6.029,CST-1368DR,4505,5042,11905,01.085,551
2022-11-10T09:00:46,42.805,6.029,CST-1368DR,4505,5042,11906,01.085,551
2022-11-10T09:03:48,42.805,6.029,CST-1368DR,4505,5040,11901,01.087,551
2022-11-10T09:06:49,42.805,6.029,CST-1368DR,4505,5042,11905,01.085,551
2022-11-10T09:09:51,42.805,6.029,CST-1368DR,4505,5039,11898,01.088,551
2022-11-10T09:12:53,42.805,6.029,CST-1368DR,4505,5043,11907,01.085,551
2022-11-10T09:15:54,42.805,6.029,CST-1368DR,4505,5047,11916,01.082,551
2022-11-10T09:18:56,42.805,6.029,CST-1368DR,4505,5039,11898,01.088,551
2022-11-10T09:21:57,42.805,6.029,CST-1368DR,4505,5044,11910,01.084,551
2022-11-10T09:24:59,42.805,6.029,CST-1368DR,4505,5038,11896,01.088,551
2022-11-10T09:28:01,42.805,6.029,CST-1368DR,4505,5043,11909,01.084,551
2022-11-10T09:31:02,42.805,6.029,CST-1368DR,4505,5041,11902,01.086,551
2022-11-10T09:34:04,42.805,6.029,CST-1368DR,4505,5043,11908,01.084,551
2022-11-10T09:37:05,42.805,6.029,CST-1368DR,4505,5043,11907,01.085,551
2022-11-10T09:40:07,42.805,6.029,CST-1368DR,4505,5043,11909,01.084,551
2022-11-10T09:43:08,42.805,6.029,CST-1368DR,4505,5043,11907,01.085,551
2022-11-10T09:46:10,42.805,6.029,CST-1368DR,4505,5041,11903,01.086,551
2022-11-10T09:49:12,42.805,6.029,CST-1368DR,4505,5042,11906,01.085,551
2022-11-10T09:52:13,42.805,6.029,CST-1368DR,4505,5042,11905,01.085,551
2022-11-10T09:55:15,42.805,6.029,CST-1368DR,4505,5041,11903,01.086,551
2022-11-10T09:58:16,42.805,6.029,CST-1368DR,4505,5050,11923,01.079,551
2022-11-10T10:01:18,42.805,6.029,CST-1368DR,4505,5041,11904,01.086,551
2022-11-10T10:04:20,42.805,6.029,CST-1368DR,4505,5045,11911,01.083,551
2022-11-10T10:07:21,42.805,6.029,CST-1368DR,4505,5042,11906,01.085,551
2022-11-10T10:10:23,42.805,6.029,CST-1368DR,4505,5046,11914,01.082,551
2022-11-10T10:13:24,42.805,6.029,CST-1368DR,4505,5042,11906,01.085,551
2022-11-10T10:16:26,42.805,6.029,CST-1368DR,4505,5045,11911,01.083,551
2022-11-10T10:19:27,42.805,6.029,CST-1368DR,4505,5043,11909,01.084,551
2022-11-10T10:22:29,42.805,6.029,CST-1368DR,4505,5041,11904,01.086,551
2022-11-10T10:25:31,42.805,6.029,CST-1368DR,4505,5042,11906,01.085,551
2022-11-10T10:28:32,42.805,6.029,CST-1368DR,4505,5042,11906,01.085,551
2022-11-10T10:31:34,42.805,6.029,CST-1368DR,4505,5045,11911,01.083,551
2022-11-10T10:34:35,42.805,6.029,CST-1368DR,4505,5043,11907,01.085,551
2022-11-10T10:37:37,42.805,6.029,CST-1368DR,4505,5041,11903,01.086,551
2022-11-10T10:40:38,42.805,6.029,CST-1368DR,4505,5041,11903,01.086,551
2022-11-10T10:43:40,42.805,6.029,CST-1368DR,4505,5040,11900,01.087,551
2022-11-10T10:46:42,42.805,6.029,CST-1368DR,4505,5039,11899,01.087,551
2022-11-10T10:49:43,42.805,6.029,CST-1368DR,4505,5041,11902,01.086,551
2022-11-10T10:52:45,42.805,6.029,CST-1368DR,4505,5039,11899,01.087,551
2022-11-10T10:55:46,42.805,6.029,CST-1368DR,4505,5043,11909,01.084,551
2022-11-10T10:58:48,42.805,6.029,CST-1368DR,4505,5044,11910,01.084,551
2022-11-10T11:01:50,42.805,6.029,CST-1368DR,4505,5041,11904,01.086,551
2022-11-10T11:04:51,42.805,6.029,CST-1368DR,4505,5048,11919,01.081,551
2022-11-10T11:07:53,42.805,6.029,CST-1368DR,4505,5053,11932,01.076,551
2022-11-10T11:10:54,42.805,6.029,CST-1368DR,4505,5053,11932,01.076,551
2022-11-10T11:13:56,42.805,6.029,CST-1368DR,4505,5058,11943,01.073,551
2022-11-10T11:16:57,42.805,6.029,CST-1368DR,4505,5053,11932,01.076,551
2022-11-10T11:19:59,42.805,6.029,CST-1368DR,4505,5050,11923,01.079,551
2022-11-10T11:23:01,42.805,6.029,CST-1368DR,4505,5049,11923,01.079,551
2022-11-10T11:26:02,42.805,6.029,CST-1368DR,4505,5050,11924,01.079,551
2022-11-10T11:29:04,42.805,6.029,CST-1368DR,4505,5050,11925,01.079,551
2022-11-10T11:32:05,42.805,6.029,CST-1368DR,4505,5051,11927,01.078,551
2022-11-10T11:35:07,42.805,6.029,CST-1368DR,4505,5049,11923,01.079,551
2022-11-10T11:38:08,42.805,6.029,CST-1368DR,4505,5042,11905,01.085,551
2022-11-10T11:41:10,42.805,6.029,CST-1368DR,4505,5054,11934,01.076,551
2022-11-10T11:44:12,42.805,6.029,CST-1368DR,4505,5048,11919,01.081,551
2022-11-10T11:47:13,42.805,6.029,CST-1368DR,4505,5044,11911,01.083,551
2022-11-10T11:50:15,42.805,6.029,CST-1368DR,4505,5059,11946,01.072,551
2022-11-10T11:53:16,42.805,6.029,CST-1368DR,4505,5047,11918,01.081,551
2022-11-10T11:56:18,42.805,6.029,CST-1368DR,4505,5062,11953,01.069,551
2022-11-10T11:59:20,42.805,6.029,CST-1368DR,4505,5061,11949,01.071,551
2022-11-10T12:02:21,42.805,6.029,CST-1368DR,4505,5058,11943,01.073,551
2022-11-10T12:05:23,42.805,6.029,CST-1368DR,4505,5049,11921,01.080,551
2022-11-10T12:08:24,42.805,6.029,CST-1368DR,4505,5047,11917,01.081,551
2022-11-10T12:11:26,42.805,6.029,CST-1368DR,4505,5052,11928,01.078,551
2022-11-10T12:14:27,42.805,6.029,CST-1368DR,4505,5066,11962,01.066,551
2022-11-10T12:17:29,42.805,6.029,CST-1368DR,4505,5064,11957,01.068,551
2022-11-10T12:20:31,42.805,6.029,CST-1368DR,4505,5063,11955,01.069,551
2022-11-10T12:23:32,42.805,6.029,CST-1368DR,4505,5058,11943,01.073,551
2022-11-10T12:26:34,42.805,6.029,CST-1368DR,4505,5058,11944,01.072,551
2022-11-10T12:29:35,42.805,6.029,CST-1368DR,4505,5067,11965,01.065,551
2022-11-10T12:32:37,42.805,6.029,CST-1368DR,4505,5067,11964,01.066,551
2022-11-10T12:35:38,42.805,6.029,CST-1368DR,4505,5050,11925,01.079,551
2022-11-10T12:38:40,42.805,6.029,CST-1368DR,4505,5067,11965,01.065,551
2022-11-10T12:41:42,42.805,6.029,CST-1368DR,4505,5058,11943,01.073,551
2022-11-10T12:44:43,42.805,6.029,CST-1368DR,4505,5057,11940,01.074,551
2022-11-10T12:47:45,42.805,6.029,CST-1368DR,4505,5061,11950,01.070,551
2022-11-10T12:50:46,42.805,6.029,CST-1368DR,4505,5061,11950,01.070,551
2022-11-10T12:53:48,42.805,6.029,CST-1368DR,4505,5053,11932,01.076,551
2022-11-10T12:56:50,42.805,6.029,CST-1368DR,4505,5058,11944,01.072,551
2022-11-10T12:59:51,42.805,6.029,CST-1368DR,4505,5059,11946,01.072,551
2022-11-10T13:02:53,42.805,6.029,CST-1368DR,4505,5057,11941,01.073,551
2022-11-10T13:05:54,42.805,6.029,CST-1368DR,4505,5045,11913,01.083,551
2022-11-10T13:08:56,42.805,6.029,CST-1368DR,4505,5046,11916,01.082,551
2022-11-10T13:11:57,42.805,6.029,CST-1368DR,4505,5058,11943,01.073,551
2022-11-10T13:14:59,42.805,6.029,CST-1368DR,4505,5047,11917,01.081,551
2022-11-10T13:18:01,42.805,6.029,CST-1368DR,4505,5044,11910,01.084,551
2022-11-10T13:21:02,42.805,6.029,CST-1368DR,4505,5048,11919,01.081,551
2022-11-10T13:24:04,42.805,6.029,CST-1368DR,4505,5042,11906,01.085,551
2022-11-10T13:27:05,42.805,6.029,CST-1368DR,4505,5041,11903,01.086,551
2022-11-10T13:30:07,42.805,6.029,CST-1368DR,4505,5041,11904,01.086,551
2022-11-10T13:33:09,42.805,6.029,CST-1368DR,4505,5046,11916,01.082,551
2022-11-10T13:36:10,42.805,6.029,CST-1368DR,4505,5055,11936,01.075,551
2022-11-10T13:39:12,42.805,6.029,CST-1368DR,4505,5040,11900,01.087,551
2022-11-10T13:42:13,42.805,6.029,CST-1368DR,4505,5043,11909,01.084,551
2022-11-10T13:45:15,42.805,6.029,CST-1368DR,4505,5044,11911,01.083,551
2022-11-10T13:48:16,42.805,6.029,CST-1368DR,4505,5041,11903,01.086,551
2022-11-10T13:51:18,42.805,6.029,CST-1368DR,4505,5044,11909,01.084,551
2022-11-10T13:54:20,42.805,6.029,CST-1368DR,4505,5050,11924,01.079,551
2022-11-10T13:57:21,42.805,6.029,CST-1368DR,4505,5050,11924,01.079,551
2022-11-10T14:00:23,42.805,6.029,CST-1368DR,4505,5042,11906,01.085,551
2022-11-10T14:03:24,42.805,6.029,CST-1368DR,4505,5043,11908,01.084,551
2022-11-10T14:06:26,42.805,6.029,CST-1368DR,4505,5043,11909,01.084,551
2022-11-10T14:09:27,42.805,6.029,CST-1368DR,4505,5041,11902,01.086,551
2022-11-10T14:12:29,42.805,6.029,CST-1368DR,4505,5040,11900,01.087,551
2022-11-10T14:15:31,42.805,6.029,CST-1368DR,4505,5044,11910,01.084,551
2022-11-10T14:18:32,42.805,6.029,CST-1368DR,4505,5044,11909,01.084,551
2022-11-10T14:21:34,42.805,6.029,CST-1368DR,4505,5042,11906,01.085,551
2022-11-10T14:24:35,42.805,6.029,CST-1368DR,4505,5040,11901,01.087,551
2022-11-10T14:27:37,42.805,6.029,CST-1368DR,4505,5040,11901,01.087,551
2022-11-10T14:30:39,42.805,6.029,CST-1368DR,4505,5038,11896,01.088,551
2022-11-10T14:33:40,42.805,6.029,CST-1368DR,4505,5040,11901,01.087,551
2022-11-10T14:36:42,42.805,6.029,CST-1368DR,4505,5044,11910,01.084,551
2022-11-10T14:39:43,42.805,6.029,CST-1368DR,4505,5043,11907,01.085,551
2022-11-10T14:42:45,42.805,6.029,CST-1368DR,4505,5041,11902,01.086,551
2022-11-10T14:45:46,42.805,6.029,CST-1368DR,4505,5042,11906,01.085,551
2022-11-10T14:48:48,42.805,6.029,CST-1368DR,4505,5041,11902,01.086,551
2022-11-10T14:51:50,42.805,6.029,CST-1368DR,4505,5044,11909,01.084,551
2022-11-10T14:54:51,42.805,6.029,CST-1368DR,4505,5040,11901,01.087,551
2022-11-10T14:57:53,42.805,6.029,CST-1368DR,4505,5038,11895,01.089,551
2022-11-10T15:00:54,42.805,6.029,CST-1368DR,4505,5039,11897,01.088,551
2022-11-10T15:03:56,42.805,6.029,CST-1368DR,4505,5041,11903,01.086,551
2022-11-10T15:06:57,42.805,6.029,CST-1368DR,4505,5039,11897,01.088,551
2022-11-10T15:09:59,42.805,6.029,CST-1368DR,4505,5036,11891,01.090,551
2022-11-10T15:13:01,42.805,6.029,CST-1368DR,4505,5046,11914,01.082,551
2022-11-10T15:16:02,42.805,6.029,CST-1368DR,4505,5041,11903,01.086,551
2022-11-10T15:19:04,42.805,6.029,CST-1368DR,4505,5050,11924,01.079,551
2022-11-10T15:22:05,42.805,6.029,CST-1368DR,4505,5044,11911,01.083,551
2022-11-10T15:25:07,42.805,6.029,CST-1368DR,4505,5048,11920,01.080,551
2022-11-10T15:28:09,42.805,6.029,CST-1368DR,4505,5042,11906,01.085,551
2022-11-10T15:31:10,42.805,6.029,CST-1368DR,4505,5042,11906,01.085,551
2022-11-10T15:34:12,42.805,6.029,CST-1368DR,4505,5045,11913,01.083,551
2022-11-10T15:37:13,42.805,6.029,CST-1368DR,4505,5054,11934,01.076,551
2022-11-10T15:40:15,42.805,6.029,CST-1368DR,4505,5050,11925,01.079,551
2022-11-10T15:43:16,42.805,6.029,CST-1368DR,4505,5059,11945,01.072,551
2022-11-10T15:46:18,42.805,6.029,CST-1368DR,4505,5054,11934,01.076,551
2022-11-10T15:49:20,42.805,6.029,CST-1368DR,4505,5061,11951,01.070,551
2022-11-10T15:52:21,42.805,6.029,CST-1368DR,4505,5054,11934,01.076,551
2022-11-10T15:55:23,42.805,6.029,CST-1368DR,4505,5063,11956,01.068,551
2022-11-10T15:58:24,42.805,6.029,CST-1368DR,4505,5051,11926,01.078,551
2022-11-10T16:01:26,42.805,6.029,CST-1368DR,4505,5052,11930,01.077,551
2022-11-10T16:04:27,42.805,6.029,CST-1368DR,4505,5050,11925,01.079,551
2022-11-10T16:07:29,42.805,6.029,CST-1368DR,4505,5059,11946,01.072,551
2022-11-10T16:10:31,42.805,6.029,CST-1368DR,4505,5057,11942,01.073,551
2022-11-10T16:13:32,42.805,6.029,CST-1368DR,4505,5048,11920,01.080,551
2022-11-10T16:16:34,42.805,6.029,CST-1368DR,4505,5048,11919,01.081,551
2022-11-10T16:19:35,42.805,6.029,CST-1368DR,4505,5049,11922,01.080,551
2022-11-10T16:22:37,42.805,6.029,CST-1368DR,4505,5046,11914,01.082,551
2022-11-10T16:25:39,42.805,6.029,CST-1368DR,4505,5046,11914,01.082,551
2022-11-10T16:28:40,42.805,6.029,CST-1368DR,4505,5044,11910,01.084,551
2022-11-10T16:31:42,42.805,6.029,CST-1368DR,4505,5044,11910,01.084,551
2022-11-10T16:34:43,42.805,6.029,CST-1368DR,4505,5041,11904,01.086,551
2022-11-10T16:37:45,42.805,6.029,CST-1368DR,4505,5044,11910,01.084,551